Location: Center Berlin
(42.6609°N, 73.3687°W)
Time: 21:49:38
(UTC+00:00)

Cosmos 2237 Rocket - Pass Details

Date: 10 September 2024
Orbit: 835 x 849 km, 71.0° (Epoch: 14 October)

Event Time Altitude Azimuth Distance (km) Brightness Sun altitude
Rises 23:34:10 0° 149° (SSE) 3,372 4.9 -5.0°
Reaches altitude 10° 23:38:02 10° 122° (ESE) 2,442 4.0 -5.7°
Maximum altitude 23:40:25 13° 97° (E) 2,245 3.8 -6.1°
Drops below altitude 10° 23:42:48 10° 71° (ENE) 2,449 4.1 -6.6°
Sets 23:46:41 0° 45° (NE) 3,389 5.0 -7.3°
